Theta_e
322 323 323 323 323 323 322 323 323 322 322 322 321 321 321 321 321 322 322 321 321 320 321 322 323 325 327 322 322 336 353 346 330 325 326 328 324 324 320 322 322 320 325 331 334 334 334
322 322 323 323 323 323 323 323 323 323 322 322 322 322 321 321 321 321 321 320 318 318 320 322 324 325 324 316 331 333 326 329 327 325 329 328 324 325 323 322 323 326 330 332 333 334 335
322 322 322 322 322 322 323 323 323 323 322 322 322 322 321 321 320 320 318 317 316 318 322 324 325 328 318 320 330 330 327 326 326 326 329 327 327 325 325 323 329 330 327 331 332 334 333
322 321 321 321 321 322 322 323 323 323 322 321 321 320 319 319 319 317 316 315 316 320 324 323 326 328 317 323 328 326 324 323 324 326 326 327 327 326 325 328 325 322 324 318 329 332 334
322 321 321 321 322 321 322 322 322 322 320 319 319 319 318 318 317 315 314 314 317 323 325 326 329 323 315 321 322 328 328 325 325 326 326 324 329 324 324 320 317 317 313 313 321 331 331
323 322 322 321 321 320 321 321 322 321 320 319 319 318 318 317 316 314 313 314 320 322 326 329 327 318 316 318 323 326 328 325 327 327 325 325 327 321 321 317 310 311 312 313 313 325 327
323 323 323 322 321 320 321 321 321 320 319 319 318 318 317 316 315 313 316 321 321 321 324 319 316 312 316 323 325 322 326 324 327 328 321 324 319 316 316 317 317 315 313 312 317 324 323
325 324 324 323 322 320 321 321 320 319 319 318 318 317 316 315 314 312 317 319 319 320 314 321 320 321 322 323 317 319 325 323 324 320 324 320 316 320 317 316 315 314 312 313 320 324 323
325 324 324 323 322 321 321 321 319 319 318 318 317 317 316 313 312 316 317 320 324 323 315 315 319 317 318 322 317 316 321 322 321 320 320 316 318 320 316 315 314 314 311 312 315 322 323
324 324 323 323 323 322 321 320 319 319 318 317 317 316 314 311 313 318 320 323 324 323 310 310 312 316 319 320 315 321 322 320 318 319 320 319 320 317 317 315 315 311 312 311 316 317 310
324 324 323 323 322 322 321 320 319 318 317 316 316 315 313 311 316 317 320 323 325 322 297 312 312 323 320 316 316 315 322 318 314 316 318 315 317 315 314 316 315 311 315 315 318 317 314
324 324 324 323 323 321 320 319 318 317 316 316 315 314 312 315 317 320 321 323 322 307 296 308 313 312 313 315 314 316 316 319 317 314 316 316 318 317 317 316 314 315 316 317 318 313 305
324 323 323 322 322 320 319 319 318 317 316 315 313 311 311 318 318 321 323 320 307 300 311 307 307 312 311 310 311 313 311 310 308 305 306 310 312 316 315 312 313 313 313 306 304 304 303
323 323 322 322 321 319 319 319 318 316 315 313 311 308 313 318 323 321 321 313 300 303 307 311 309 310 308 311 310 310 310 308 312 310 307 304 302 311 314 314 313 312 312 305 298 300 304
323 322 322 321 321 320 320 318 317 316 314 313 309 322 324 326 324 322 316 305 305 306 310 307 309 307 307 309 309 310 309 308 310 311 305 305 306 315 314 315 315 311 307 313 307 307 303
322 322 322 321 321 320 320 318 317 316 314 312 318 324 322 324 324 320 312 303 307 310 310 308 307 310 306 307 307 308 308 311 310 312 314 310 307 312 314 315 314 313 315 306 308 300 299
322 322 321 321 321 320 320 318 317 315 313 311 318 321 321 324 322 315 307 308 309 312 310 307 307 309 310 307 308 307 308 310 312 311 314 312 311 309 314 313 311 312 310 311 312 308 303
322 321 321 321 321 321 320 318 316 313 311 312 320 317 324 325 311 314 308 308 303 309 312 309 309 309 310 309 308 308 307 310 314 314 309 313 312 307 310 318 320 317 314 313 306 307 309
322 321 321 321 321 321 320 317 315 312 311 318 321 322 325 323 306 307 310 309 311 310 310 309 310 313 313 311 307 309 310 313 313 313 312 313 309 305 307 314 318 315 316 316 315 313 308
322 322 322 321 321 321 319 317 314 313 312 316 322 316 317 318 319 313 312 311 311 317 314 314 314 315 314 314 314 311 310 315 315 313 319 316 311 309 306 308 313 312 315 317 314 308 311
322 322 322 321 321 321 319 317 315 313 312 316 322 318 317 314 315 316 316 316 312 311 317 318 315 314 315 314 315 314 313 318 320 319 314 313 308 310 311 312 312 311 311 314 314 313 310
321 321 321 321 321 319 319 318 316 313 312 320 314 314 321 317 317 317 310 315 313 315 316 315 314 315 314 316 317 316 318 319 318 319 318 314 311 314 309 313 313 311 312 314 315 315 315
321 321 321 321 320 319 319 318 316 313 314 321 321 320 316 310 316 316 319 316 314 317 319 319 317 317 316 318 322 324 324 324 323 319 317 315 314 313 307 313 312 308 312 314 316 318 316
320 320 321 319 319 319 319 318 317 314 314 318 320 318 313 312 313 315 314 314 314 316 316 319 320 319 322 325 325 325 324 323 322 321 322 318 317 316 312 314 303 313 320 319 317 318 319
320 319 318 318 318 318 318 318 318 316 314 319 319 318 315 308 311 309 314 314 317 320 318 318 320 323 325 322 319 316 316 317 318 319 320 323 320 314 310 309 311 314 316 316 316 315 320
318 317 317 317 317 318 317 317 318 317 314 319 319 321 318 311 310 312 313 313 313 317 320 319 324 326 322 321 317 310 306 309 311 314 320 318 322 315 312 307 304 314 319 322 321 311 321
316 316 316 316 316 316 316 316 317 318 315 318 320 322 319 313 318 314 314 312 315 316 317 321 318 322 322 318 311 308 307 315 306 308 312 314 315 310 311 309 311 318 319 322 309 314 323
314 314 315 315 315 314 315 316 317 318 317 317 321 325 318 316 318 318 317 315 316 319 315 318 318 321 321 315 314 313 311 314 312 315 315 313 310 309 311 308 305 321 319 314 323 325 326
310 311 313 314 314 313 314 316 317 317 317 316 320 323 322 316 318 323 322 323 321 319 316 320 315 319 320 318 320 320 315 315 315 308 317 311 317 314 314 315 322 325 325 327 325 326 328
Wind_Speed
12 13 14 14 14 14 15 15 15 15 16 16 17 17 18 18 19 19 18 17 17 17 16 14 12 10 8 8 6 6 8 9 10 9 6 2 2 2 2 3 5 1 4 5 9 9 11
13 14 14 15 15 15 15 16 16 16 16 16 16 17 17 18 19 19 18 17 18 17 16 13 11 9 8 5 3 2 12 10 8 8 2 2 5 4 4 2 5 5 9 11 9 10 9
13 13 14 15 16 17 16 15 16 16 16 16 17 17 18 19 20 21 20 20 19 17 14 10 8 6 7 8 3 5 11 8 4 6 1 3 3 6 1 7 6 10 12 10 7 8 6
12 13 13 14 15 15 15 15 16 17 17 18 19 20 21 21 22 22 22 21 19 15 8 5 6 6 1 4 2 4 9 8 6 5 3 2 3 1 3 6 7 6 8 7 7 8 7
12 13 14 14 15 16 16 16 17 17 19 19 19 20 21 22 22 22 22 22 18 9 3 5 7 6 7 4 7 5 9 8 9 6 3 3 5 2 8 12 8 7 3 1 7 7 5
11 13 13 15 16 17 18 18 17 19 19 20 19 21 21 22 22 22 23 20 2 6 6 6 5 7 5 5 4 5 8 7 8 9 7 6 5 7 7 10 5 5 3 3 6 7 8
8 9 13 15 16 16 18 18 19 18 19 19 21 20 22 22 23 19 15 6 7 8 8 7 4 3 5 4 3 8 9 11 9 11 12 5 10 6 8 7 7 2 3 6 1 2 7
10 11 11 11 12 17 18 19 19 18 19 21 20 20 23 25 22 19 7 6 6 7 7 8 9 6 5 2 8 11 9 13 13 14 12 8 15 9 2 1 3 3 8 3 2 3 7
11 11 12 12 12 17 17 17 18 17 19 20 19 18 20 26 25 8 6 2 3 6 8 6 6 7 8 10 9 15 16 12 16 18 15 19 9 11 2 5 7 5 7 0 5 5 5
11 12 12 12 11 14 15 16 18 17 19 19 19 18 18 27 8 5 2 3 7 6 7 11 9 8 9 9 10 9 16 13 8 16 18 17 10 8 9 11 6 10 5 4 5 9 1
12 12 12 13 13 14 15 17 17 18 19 21 19 18 15 8 11 5 6 6 5 6 7 7 8 5 13 13 17 11 9 10 16 15 9 16 12 12 15 14 3 6 5 3 6 7 7
12 12 13 13 13 15 15 16 17 19 23 22 21 19 16 5 5 6 6 6 6 9 4 7 8 13 16 14 7 13 13 8 5 10 14 19 2 8 14 4 5 4 3 5 7 5 10
12 13 13 13 12 15 16 17 19 20 22 22 23 21 8 3 2 4 5 6 8 8 4 8 11 16 19 15 11 17 16 17 12 13 12 14 14 11 9 12 6 9 12 9 8 8 5
12 12 13 13 12 14 14 17 18 21 22 23 25 20 9 5 3 6 6 8 7 3 2 4 5 16 17 17 14 10 14 16 17 14 10 12 18 19 14 17 11 15 16 11 5 8 4
12 12 13 14 14 15 15 17 18 21 24 26 26 4 4 3 4 5 8 10 2 2 3 1 8 14 16 14 8 12 16 15 16 14 11 14 11 18 8 7 10 10 10 7 12 6 9
12 13 13 14 15 15 15 17 18 23 26 24 6 3 4 2 6 7 9 11 2 2 5 4 9 14 15 17 13 13 13 13 13 18 14 7 10 12 9 9 4 9 4 8 9 5 7
11 12 13 13 14 14 15 18 20 23 27 19 5 5 5 4 5 7 10 7 5 6 5 5 2 8 10 17 18 15 12 5 17 17 16 9 11 11 10 11 5 7 10 9 7 6 9
11 12 12 12 13 13 15 17 19 21 26 8 5 4 4 4 7 3 9 4 2 9 6 8 6 10 8 12 16 13 11 4 14 16 16 16 9 12 13 7 3 8 10 12 10 9 5
10 11 12 12 12 12 14 16 17 18 16 7 4 2 4 5 5 7 4 9 6 9 8 5 6 5 5 9 11 13 11 8 11 15 15 10 9 10 10 9 5 9 10 11 8 8 6
10 10 10 11 11 11 13 15 17 17 15 6 5 4 5 5 2 6 3 6 7 6 10 8 9 6 7 8 10 12 9 7 8 11 7 10 15 15 12 10 4 7 8 10 12 9 2
9 9 9 9 9 10 12 14 16 18 11 5 2 4 5 3 6 5 4 3 6 5 5 6 7 12 10 8 11 8 12 10 7 6 7 10 12 14 16 2 4 10 7 10 12 11 8
8 8 7 8 7 9 11 13 15 20 24 4 6 5 1 4 4 6 5 2 5 3 4 6 9 4 9 9 8 13 13 11 8 10 12 13 6 8 13 7 10 11 10 12 13 9 9
7 6 5 5 6 8 9 11 13 17 17 4 2 1 5 4 3 5 1 4 4 8 3 6 8 9 8 1 4 3 3 6 8 11 12 12 7 7 13 8 9 11 15 15 14 10 10
3 3 2 3 6 7 8 9 12 11 12 4 4 4 5 2 4 3 4 8 10 9 9 7 7 6 5 1 4 6 8 10 8 3 6 10 10 5 1 6 11 2 4 7 12 10 8
0 3 3 4 5 8 8 9 10 9 9 3 3 5 4 6 3 7 4 7 10 4 5 5 4 3 4 7 7 9 8 7 7 3 3 5 7 4 6 11 4 8 5 6 8 11 10
4 4 4 5 7 8 8 9 9 9 9 3 3 3 4 6 4 5 7 4 6 6 4 2 1 5 4 5 3 5 6 4 6 5 1 3 4 7 4 12 11 5 7 2 2 10 4
7 6 5 6 6 7 8 9 10 9 8 6 2 3 5 6 1 4 3 6 5 4 5 1 6 2 4 4 6 4 2 6 8 13 6 7 5 10 9 10 8 8 6 4 10 4 5
8 7 5 5 6 7 8 8 9 10 8 7 3 2 5 5 9 7 4 5 3 2 5 7 5 4 4 5 4 5 6 4 4 3 2 6 5 6 4 6 12 9 8 7 6 4 5
8 8 7 6 6 7 8 9 10 10 8 8 3 2 4 6 8 8 14 16 16 12 7 3 6 4 5 4 1 2 4 4 4 7 4 4 4 6 5 3 4 3 4 4 4 3 4
Wind_Direction
20 12 9 8 6 2 358 355 350 348 346 344 341 336 333 331 328 326 325 323 324 320 315 310 303 302 267 214 79 59 131 148 194 226 248 306 73 246 120 112 158 344 91 94 135 135 107
18 17 10 7 6 360 354 350 345 343 342 341 338 334 331 331 329 327 325 324 325 318 311 301 291 291 252 179 28 61 153 168 204 224 199 312 27 348 78 74 7 92 100 105 133 123 139
16 16 13 9 4 360 349 344 341 337 337 338 336 335 334 334 332 329 326 322 319 313 305 286 273 271 256 72 69 115 170 190 207 250 229 52 344 275 179 124 120 131 117 118 126 147 146
14 10 9 5 359 349 343 341 337 336 337 341 340 339 338 336 333 328 323 318 312 308 311 253 247 256 359 113 95 193 184 191 212 231 305 342 307 18 319 127 150 168 183 180 153 182 151
8 7 0 356 352 349 342 337 335 337 341 341 341 339 337 335 331 327 321 311 299 288 280 215 235 266 139 131 217 172 194 197 182 189 189 237 245 26 167 200 176 204 137 279 165 200 163
4 0 355 351 349 347 344 338 334 339 339 338 338 337 334 335 329 325 319 299 307 244 208 229 263 241 184 156 126 155 175 211 181 165 171 212 217 184 186 226 170 114 222 223 272 174 222
356 0 359 355 349 343 341 337 337 338 337 335 336 334 335 331 326 323 317 215 207 182 209 286 89 360 128 144 196 197 175 183 186 208 214 190 238 192 48 15 49 4 304 292 129 115 248
320 323 325 330 347 345 341 337 337 336 335 335 335 334 332 330 323 318 274 276 42 358 285 213 247 260 245 303 174 178 189 194 192 203 216 190 239 108 106 68 275 261 270 162 112 234 249
329 326 324 321 326 341 334 333 338 336 334 331 331 330 331 329 320 274 310 1 31 332 255 165 206 227 192 200 203 172 197 208 201 212 205 229 211 127 225 231 279 231 339 94 320 167 226
327 328 328 323 323 333 328 329 337 333 332 330 331 329 335 329 285 351 201 123 305 281 258 146 194 188 179 217 196 163 207 197 211 219 213 229 172 198 250 268 278 278 22 277 174 211 259
329 332 329 327 328 328 329 331 335 333 332 330 326 325 328 329 319 242 56 313 297 224 243 126 145 99 156 198 130 179 179 204 223 215 217 218 218 223 243 257 256 17 331 239 192 231 265
330 331 330 329 331 331 329 332 333 331 333 327 321 321 326 194 220 288 299 302 226 229 211 142 145 175 174 197 177 140 182 230 288 216 223 248 180 238 250 220 214 126 175 166 196 250 245
330 330 327 326 328 329 329 335 333 330 329 324 318 315 293 262 31 336 290 212 221 254 134 149 176 175 190 181 157 172 183 192 190 198 201 211 215 209 219 207 191 212 206 203 217 205 277
329 324 326 326 323 329 330 332 331 329 327 322 320 313 166 257 285 302 223 220 241 21 231 119 202 183 199 180 187 190 192 200 213 223 194 205 196 203 192 232 212 206 241 277 242 272 7
322 323 324 324 322 318 331 330 329 329 328 327 309 175 198 147 220 230 227 218 242 198 28 276 169 192 196 184 217 201 208 210 189 219 232 196 201 162 188 197 238 168 228 294 287 236 269
314 318 321 324 320 324 325 327 333 332 326 332 307 250 52 6 182 226 228 238 232 279 329 260 218 201 191 191 202 200 184 213 206 197 240 210 155 171 148 165 163 280 17 216 210 264 258
302 310 315 319 317 322 328 334 332 330 330 334 245 225 102 126 243 216 223 218 249 235 288 299 259 201 232 183 199 190 189 182 204 188 209 235 247 144 182 206 204 168 220 230 303 301 313
296 302 310 315 318 325 330 334 332 328 328 288 286 212 123 243 209 234 234 241 354 258 225 267 280 268 246 188 201 201 201 253 188 173 190 216 243 166 195 99 338 277 282 209 232 190 240
290 300 307 312 323 328 330 333 330 329 341 309 318 39 157 267 232 202 178 242 253 264 242 245 261 247 203 209 203 211 213 98 173 189 199 173 230 193 178 177 185 230 205 253 288 308 259
288 292 302 316 325 331 332 330 328 330 335 278 277 201 155 224 304 299 245 234 245 194 262 263 273 256 202 203 216 192 209 158 176 210 39 233 227 235 209 210 165 190 205 218 250 273 134
285 293 304 317 330 337 335 331 333 333 340 275 316 65 4 188 187 277 265 325 271 249 212 236 233 245 216 195 184 201 185 145 172 141 203 231 231 223 249 292 262 271 222 211 236 269 279
284 290 306 321 343 341 339 336 340 343 333 277 329 331 298 293 280 252 156 160 304 325 263 191 245 4 252 252 214 178 181 185 173 173 197 213 221 198 216 216 237 238 235 229 226 245 259
279 289 311 338 353 345 344 339 350 358 333 343 49 197 282 133 244 248 83 8 343 337 221 253 309 290 243 98 322 3 103 118 144 166 184 187 195 205 225 198 225 239 232 230 217 229 251
283 297 331 16 360 351 351 349 356 13 4 320 19 288 278 232 247 296 315 307 300 311 283 305 322 263 67 60 175 148 121 119 131 121 185 184 190 203 272 176 222 96 15 234 236 247 232
82 99 66 25 5 4 360 2 350 7 8 337 326 304 319 286 316 253 312 306 303 293 246 266 33 346 262 274 183 149 154 167 124 77 138 234 196 162 223 218 243 175 170 198 211 250 225
72 71 52 28 14 5 2 5 351 1 6 311 290 313 293 305 104 344 304 312 325 347 186 98 103 333 271 263 193 223 198 230 156 146 343 147 269 256 183 269 253 38 109 104 254 241 89
47 36 30 30 17 7 1 2 350 354 360 319 297 305 279 287 330 299 326 336 314 319 284 8 351 286 232 226 196 216 211 327 183 229 174 196 243 240 220 251 261 108 128 164 219 73 84
27 25 14 16 12 2 354 354 347 355 352 323 339 336 309 297 295 260 265 270 285 254 324 14 257 188 228 228 245 157 225 154 230 56 229 224 231 207 239 258 243 138 141 224 58 105 72
6 358 347 350 351 351 344 350 349 351 347 323 270 44 332 262 301 305 277 277 266 275 298 309 342 311 7 262 171 199 176 191 2 226 171 236 329 338 288 43 96 175 29 80 334 112 133